Hourly Data Report for September 29, 2017

All times are specified in Local Standard Time (LST). Add 1 hour to adjust for Daylight Saving Time where and when it is observed.

MONCTON INTL A
NEW BRUNSWICK

46°06'44.000" N
64°40'43.000" W
70.70 m
8103201
71705
YQM

Download Data

Hourly Data (September 2017)
Hourly Data Report for September 29, 2017
Temp Definition
°C
Dew Point Temp Definition
°C
Rel Hum Definition
%
Wind Dir Definition
10's deg

Wind Spd Definition
km/h
Visibility Definition
km
Stn Press Definition
kPa
Hmdx Definition


Wind Chill Definition


Weather Definition


TIME
00:00 Legend Double Dagger 8.4 4.5 76 27 18 24.1 99.77     LegendNANA
01:00 Legend Double Dagger 8.0 4.2 77 28 17 24.1 99.79     LegendNANA
02:00 Legend Double Dagger 7.2 3.8 79 27 16 24.1 99.78     Clear
03:00 Legend Double Dagger 6.7 3.6 81 28 18 24.1 99.78     LegendNANA
04:00 Legend Double Dagger 5.8 3.3 84 28 21 24.1 99.82     LegendNANA
05:00 Legend Double Dagger 4.9 2.9 87 27 18 24.1 99.87     Clear
06:00 Legend Double Dagger 4.2 2.5 88 26 16 24.1 99.93     LegendNANA
07:00 Legend Double Dagger 5.2 2.7 84 26 15 24.1 100.01     LegendNANA
08:00 Legend Double Dagger 7.9 2.7 70 29 21 24.1 100.05     Clear
09:00 Legend Double Dagger 9.4 2.7 63 30 27 24.1 100.11     LegendNANA
10:00 Legend Double Dagger 10.9 3.0 58 32 27 24.1 100.14     LegendNANA
11:00 Legend Double Dagger 11.5 2.8 55 31 29 24.1 100.16     Mostly Cloudy
12:00 Legend Double Dagger 10.9 2.8 57 34 22 24.1 100.21     LegendNANA
13:00 Legend Double Dagger 11.1 2.7 56 32 23 24.1 100.26     LegendNANA
14:00 Legend Double Dagger 10.7 2.5 57 31 24 24.1 100.35     Cloudy
15:00 Legend Double Dagger 10.9 1.2 51 32 24 24.1 100.39     LegendNANA
16:00 Legend Double Dagger 10.7 3.1 59 34 17 24.1 100.45     LegendNANA
17:00 Legend Double Dagger 10.6 3.8 63 33 15 24.1 100.52     Mostly Cloudy
18:00 Legend Double Dagger 9.0 4.2 72 32 11 24.1 100.60     LegendNANA
19:00 Legend Double Dagger 8.3 4.2 75 32 12 24.1 100.67     LegendNANA
20:00 Legend Double Dagger 7.0 4.2 82 34 13 24.1 100.77     Mostly Cloudy
21:00 Legend Double Dagger 6.9 5.2 89 34 13 24.1 100.81     Rain Showers
22:00 Legend Double Dagger 6.5 5.5 93 36 11 16.1 100.88     Rain Showers
23:00 Legend Double Dagger 6.1 5.2 94 32 10 16.1 100.94     Rain Showers

Notes on Data Quality.

Legend

  • E = Estimated
  • M = Missing
  • NA = Not Available
  • ‡ = Partner data that is not subject to review by the National Climate Archives
Date modified: